Wind_Speed
11 8 5 4 5 6 5 6 7 8 8 7 8 9 7 5 5 7 8 10 13 14 15 16 16 16 12 5 4 3 3 5 7 6 3 1 2 3 3 3 3 4
11 7 5 5 6 6 6 6 7 8 8 8 8 7 7 6 7 8 10 11 13 15 16 17 17 16 11 5 3 4 3 4 7 7 5 2 2 2 2 2 2 2
11 8 5 5 6 6 6 7 7 8 8 8 9 8 7 8 9 11 12 13 14 15 17 18 18 16 9 3 4 5 4 5 6 7 6 4 3 2 3 4 3 2
11 9 6 4 5 5 5 6 8 8 8 8 9 9 9 8 10 12 13 14 15 17 18 18 18 15 8 3 4 6 5 6 6 6 7 6 5 5 5 5 4 2
9 9 7 6 6 6 5 6 7 8 8 8 9 10 9 8 9 12 13 15 17 18 20 19 17 15 9 2 4 7 5 5 6 6 7 7 7 7 7 7 6 4
9 9 8 8 8 8 7 7 7 7 8 9 9 9 8 8 10 12 13 16 18 19 20 20 17 14 10 5 4 6 5 4 5 6 7 8 8 8 8 9 9 8
9 10 10 10 8 7 8 8 8 9 9 9 9 8 7 8 10 11 12 15 17 19 21 21 18 14 10 6 4 4 3 3 4 6 7 9 10 10 10 10 10 9
8 11 12 11 9 7 7 8 9 9 9 9 9 8 7 8 9 10 12 14 16 19 21 22 20 15 10 7 4 3 2 2 3 6 9 11 11 11 11 10 8 6
9 12 13 13 12 10 7 8 9 10 10 10 9 7 6 7 8 10 12 14 16 18 19 20 20 15 10 7 4 3 3 3 3 6 10 11 11 11 10 9 8 6
10 12 13 14 14 10 8 9 10 9 10 9 7 7 6 6 7 9 12 14 17 17 17 19 19 14 10 6 5 5 3 3 4 6 10 12 12 10 9 9 9 8
9 10 12 15 14 10 8 11 12 11 11 9 8 8 9 7 6 9 12 14 17 17 18 21 18 13 10 7 6 5 4 3 4 7 11 12 12 11 10 10 10 10
9 10 12 15 13 8 8 10 13 14 13 11 9 8 10 10 8 9 12 15 17 19 21 20 15 12 12 10 7 6 4 4 5 7 10 12 11 12 12 12 11 10
9 10 12 15 13 7 6 9 12 13 13 13 9 7 9 10 9 10 13 15 17 19 20 17 13 12 13 11 8 5 4 5 6 8 11 12 10 10 12 13 12 11
9 10 12 15 14 10 6 7 9 11 14 13 11 12 12 9 8 10 13 15 16 18 19 17 13 12 13 11 8 6 5 6 9 11 12 12 11 10 11 13 12 11
7 9 10 12 15 14 10 8 9 11 14 14 14 17 18 15 13 13 14 13 13 17 21 19 15 12 11 10 7 6 7 8 10 13 13 12 12 12 12 12 13 13
6 8 8 10 13 14 13 11 10 11 13 14 14 15 16 17 17 17 17 15 14 18 22 22 18 12 8 7 6 5 6 8 11 13 13 13 13 13 13 13 15 15
5 6 7 9 12 12 12 12 11 11 12 12 11 10 12 15 17 18 18 16 16 20 23 24 23 16 7 4 4 5 5 8 11 12 12 14 14 14 15 16 17 17
2 3 5 8 10 10 10 11 11 11 11 11 10 9 11 15 17 18 18 17 18 22 23 25 26 22 11 3 2 4 5 7 10 12 13 14 14 16 18 19 19 19
1 0 2 5 7 8 9 10 10 10 10 11 11 11 12 14 16 17 18 18 19 21 23 25 27 27 20 10 3 3 4 6 8 10 12 13 14 16 19 19 20 21
2 1 1 3 5 6 8 9 10 9 9 9 10 11 13 14 15 16 17 18 19 19 20 22 24 27 27 21 12 5 4 6 7 8 9 11 13 15 18 19 20 21
4 1 1 3 5 6 7 8 7 6 7 9 8 10 12 12 13 14 15 17 18 18 18 19 20 22 25 26 23 15 8 6 7 8 8 9 10 13 17 19 19 19
7 5 4 4 5 5 5 7 7 6 6 8 8 9 10 11 11 12 13 15 16 16 16 16 18 19 22 24 26 24 18 10 7 7 7 7 9 12 16 18 19 17
7 7 7 7 7 7 7 8 9 7 6 7 9 9 9 10 10 11 12 13 14 14 14 15 16 18 20 22 24 25 23 18 11 8 6 7 9 11 13 15 17 15
7 7 8 8 8 7 7 9 10 9 7 7 8 8 8 9 9 10 11 13 13 13 13 14 15 17 19 20 22 23 24 21 16 10 7 6 8 11 10 11 13 12
5 6 7 8 6 5 6 8 9 10 9 9 7 6 7 7 7 7 9 12 13 13 12 13 14 16 18 19 20 22 23 22 19 15 10 6 7 11 11 10 10 9
3 4 5 7 5 4 6 7 8 10 11 9 7 5 5 5 6 6 8 10 13 13 13 13 13 14 16 17 18 20 22 22 20 19 15 9 8 11 11 8 8 7
Wind_Direction
22 36 66 72 48 50 45 24 11 4 5 1 5 24 40 44 20 351 344 345 347 348 352 356 0 10 15 359 353 13 39 71 66 45 22 349 42 60 58 54 54 72
26 46 82 74 54 55 48 29 15 11 13 7 9 28 39 26 4 350 348 347 346 345 346 350 353 1 11 12 13 17 14 52 65 55 34 357 353 27 32 28 29 54
27 42 70 66 46 45 36 21 13 9 8 5 6 16 23 12 352 343 346 349 349 347 348 351 353 358 11 41 40 30 37 55 67 65 49 25 356 3 11 1 354 8
24 30 40 31 15 18 17 15 18 15 10 9 10 14 16 4 345 339 347 355 355 353 354 357 0 5 16 78 64 47 61 74 75 70 59 42 23 22 21 11 6 13
18 19 21 10 352 348 350 5 21 20 12 9 11 14 11 355 341 340 349 0 360 355 354 357 5 14 20 64 82 63 69 83 74 62 59 48 35 32 23 8 2 2
8 9 13 9 354 337 334 349 5 5 0 3 9 13 5 349 345 348 356 2 358 351 350 353 2 16 25 39 83 80 74 75 63 55 52 41 29 27 20 3 349 344
1 5 5 5 358 341 334 341 349 351 351 354 3 6 353 345 350 358 2 1 355 350 348 349 355 8 27 40 69 94 84 59 54 54 45 30 17 11 10 1 348 340
5 7 4 4 0 351 343 341 347 355 354 352 1 3 350 353 3 6 2 1 357 351 349 351 354 3 23 41 63 103 99 59 55 51 37 23 10 6 6 2 354 353
10 6 5 6 1 356 353 350 349 353 356 358 4 5 7 23 29 17 8 5 358 351 353 358 359 6 22 40 80 123 107 73 57 45 35 21 9 8 10 8 6 9
13 7 8 11 8 4 2 3 3 2 5 13 21 25 37 50 40 19 10 5 359 357 0 3 5 15 30 50 105 123 103 73 50 40 35 24 14 12 12 12 12 9
11 7 11 19 20 14 13 20 25 26 25 35 48 43 40 42 26 9 9 7 4 4 5 6 11 29 48 71 108 111 89 67 46 39 34 24 15 13 13 10 6 6
14 10 18 28 30 27 34 37 34 31 28 31 41 36 26 26 17 5 11 15 9 6 7 11 24 48 60 73 93 96 80 55 29 26 25 16 5 4 7 3 356 358
18 16 28 37 39 42 54 44 35 32 26 21 27 26 12 10 11 15 24 23 15 13 16 22 41 65 69 72 77 75 60 28 11 13 18 13 2 358 358 353 350 348
23 25 34 37 39 48 59 44 34 30 25 26 39 44 34 24 18 17 19 17 20 27 30 32 46 65 70 66 61 53 34 16 13 14 16 12 4 359 354 349 350 350
27 32 36 34 36 45 53 47 37 34 37 44 52 50 45 42 36 24 18 22 31 37 36 36 42 55 63 57 46 38 26 16 16 15 11 6 2 0 359 357 359 360
29 32 35 34 34 41 48 46 40 41 45 47 48 47 44 42 38 34 35 42 44 38 36 37 39 45 60 58 41 30 22 19 21 18 12 9 8 9 11 9 3 1
38 37 34 32 33 38 43 43 40 46 52 49 47 46 40 38 36 34 39 47 45 39 35 36 37 38 48 70 45 21 18 24 27 24 17 15 19 22 19 12 5 3
42 43 37 36 38 36 34 37 37 45 57 57 50 45 39 38 36 36 44 49 46 40 36 35 37 34 35 65 58 15 12 16 25 28 22 19 25 25 17 12 13 17
17 275 37 37 38 29 25 28 28 35 53 53 41 38 41 40 38 40 47 49 44 39 35 37 39 37 35 40 40 9 6 6 18 29 24 21 24 22 16 15 19 21
40 228 291 9 20 15 11 16 17 25 47 50 37 32 39 41 40 39 42 43 41 38 33 34 39 39 37 37 35 19 351 352 3 15 22 25 24 18 15 18 20 19
63 75 321 350 7 4 1 11 19 27 47 51 39 32 37 40 37 37 38 35 35 34 28 26 30 32 31 33 34 31 15 343 337 351 14 26 20 15 17 21 20 15
65 69 63 52 41 33 29 35 39 40 48 51 41 34 37 38 36 36 36 31 28 27 22 17 19 21 21 23 28 31 31 22 353 348 7 21 17 14 17 19 18 12
56 63 64 57 49 49 50 50 49 47 45 42 39 40 41 40 37 33 32 28 22 19 17 13 12 15 15 15 19 24 29 31 24 4 357 5 9 10 13 19 20 12
36 40 41 35 29 30 37 46 53 55 44 30 35 47 49 42 34 26 25 24 19 15 14 10 9 10 10 10 13 18 21 25 26 15 356 348 354 4 19 35 33 23
4 8 17 23 22 26 38 46 52 50 40 29 33 53 58 43 24 12 15 17 15 14 12 8 7 8 6 7 11 14 16 18 19 15 5 342 337 360 25 50 51 43
332 336 7 27 33 35 40 45 46 39 30 26 28 35 38 29 12 4 9 12 12 12 10 7 5 5 6 8 10 11 12 13 13 11 7 349 330 356 24 57 66 61
Height
1552 1551 1550 1549 1548 1547 1546 1545 1545 1544 1543 1542 1541 1540 1539 1537 1536 1534 1533 1532 1531 1530 1528 1527 1526 1525 1524 1522 1521 1520 1519 1518 1517 1516 1516 1515 1515 1514 1513 1513 1512 1512
1552 1551 1551 1550 1548 1547 1546 1546 1545 1544 1543 1542 1541 1541 1539 1538 1536 1535 1533 1532 1531 1530 1528 1527 1525 1524 1524 1522 1521 1520 1519 1518 1517 1516 1515 1515 1514 1514 1513 1513 1513 1512
1553 1552 1551 1550 1549 1548 1547 1546 1545 1544 1543 1542 1541 1541 1540 1538 1536 1534 1533 1532 1531 1530 1528 1527 1525 1524 1523 1522 1521 1520 1519 1518 1517 1515 1515 1514 1514 1514 1514 1513 1513 1512
1553 1553 1552 1551 1549 1548 1547 1546 1545 1545 1544 1543 1542 1541 1540 1538 1536 1534 1533 1532 1531 1530 1528 1526 1525 1523 1522 1522 1521 1520 1519 1518 1516 1515 1515 1514 1514 1514 1514 1513 1513 1512
1553 1553 1552 1551 1550 1548 1547 1546 1546 1545 1544 1543 1542 1541 1539 1537 1536 1534 1533 1532 1531 1529 1527 1525 1524 1523 1521 1521 1521 1520 1519 1518 1516 1515 1515 1514 1514 1514 1514 1513 1513 1512
1554 1553 1552 1552 1550 1548 1547 1546 1546 1545 1544 1543 1542 1541 1538 1536 1536 1535 1533 1532 1530 1528 1526 1524 1524 1523 1521 1520 1520 1520 1519 1518 1516 1516 1515 1514 1514 1514 1514 1513 1512 1512
1554 1554 1552 1552 1550 1549 1548 1546 1546 1545 1544 1543 1542 1540 1538 1537 1536 1535 1533 1532 1530 1528 1526 1524 1523 1522 1521 1520 1520 1520 1519 1518 1517 1516 1515 1514 1514 1514 1513 1513 1512 1511
1555 1554 1552 1551 1550 1549 1548 1547 1546 1545 1544 1543 1541 1540 1539 1538 1536 1535 1533 1531 1529 1528 1526 1524 1522 1521 1521 1521 1520 1520 1519 1518 1517 1516 1515 1515 1514 1514 1513 1512 1512 1511
1555 1554 1553 1551 1550 1549 1548 1547 1546 1544 1543 1542 1541 1540 1539 1538 1536 1535 1533 1531 1529 1528 1526 1524 1522 1521 1521 1521 1520 1520 1519 1518 1517 1517 1516 1516 1515 1514 1513 1512 1512 1511
1555 1554 1553 1552 1550 1549 1547 1546 1545 1544 1543 1542 1541 1540 1539 1537 1536 1535 1533 1531 1530 1529 1527 1525 1523 1521 1521 1521 1521 1520 1519 1518 1518 1517 1517 1516 1515 1514 1513 1512 1511 1510
1555 1554 1553 1552 1550 1549 1547 1547 1546 1544 1544 1543 1541 1540 1539 1538 1536 1535 1533 1532 1531 1529 1528 1526 1523 1522 1521 1521 1521 1521 1520 1519 1519 1518 1518 1517 1516 1515 1513 1512 1511 1510
1555 1555 1554 1552 1550 1549 1548 1547 1546 1545 1544 1543 1542 1541 1539 1538 1537 1535 1534 1533 1532 1530 1528 1526 1525 1523 1523 1522 1522 1522 1521 1520 1520 1519 1518 1518 1517 1515 1514 1513 1512 1511
1555 1555 1553 1552 1551 1549 1548 1548 1547 1546 1545 1544 1543 1542 1540 1538 1537 1536 1535 1534 1533 1532 1530 1528 1526 1525 1524 1524 1523 1522 1522 1521 1521 1520 1519 1518 1517 1516 1514 1513 1512 1511
1555 1554 1553 1553 1551 1550 1549 1548 1548 1547 1546 1544 1543 1542 1541 1539 1537 1537 1536 1536 1535 1533 1531 1529 1528 1526 1526 1525 1524 1524 1523 1522 1522 1521 1520 1519 1518 1516 1515 1513 1512 1511
1555 1555 1554 1553 1552 1551 1550 1549 1548 1547 1546 1545 1544 1543 1542 1540 1539 1538 1537 1536 1536 1535 1533 1531 1529 1527 1527 1526 1526 1525 1524 1523 1522 1521 1520 1519 1518 1516 1515 1513 1512 1510
1555 1555 1554 1553 1552 1551 1550 1549 1549 1548 1547 1546 1544 1543 1542 1541 1540 1540 1538 1538 1537 1536 1534 1532 1530 1528 1528 1527 1527 1525 1525 1524 1523 1522 1520 1519 1518 1516 1515 1513 1511 1510
1555 1554 1554 1553 1552 1552 1551 1550 1549 1548 1547 1547 1545 1544 1544 1542 1542 1541 1539 1539 1538 1536 1535 1533 1531 1529 1528 1528 1527 1526 1525 1524 1523 1522 1521 1519 1518 1516 1515 1513 1511 1510
1555 1554 1554 1553 1552 1552 1551 1550 1550 1549 1548 1547 1546 1545 1544 1543 1543 1541 1540 1540 1539 1537 1536 1534 1532 1530 1529 1528 1527 1526 1525 1524 1523 1522 1521 1520 1518 1517 1515 1514 1512 1510
1555 1554 1553 1553 1553 1552 1551 1551 1550 1549 1548 1548 1547 1546 1545 1544 1543 1542 1541 1541 1540 1538 1537 1535 1534 1532 1530 1529 1528 1527 1526 1525 1524 1523 1521 1520 1519 1517 1516 1514 1512 1510
1554 1554 1553 1553 1553 1552 1552 1551 1550 1549 1549 1548 1547 1547 1546 1545 1544 1543 1542 1542 1541 1539 1538 1537 1535 1534 1532 1531 1529 1528 1527 1525 1524 1523 1522 1521 1520 1518 1517 1515 1513 1511
1554 1554 1553 1553 1553 1552 1551 1551 1550 1550 1549 1548 1548 1547 1547 1546 1545 1544 1543 1542 1541 1540 1539 1538 1537 1536 1534 1532 1531 1529 1528 1526 1525 1523 1522 1521 1520 1519 1518 1516 1514 1513
1554 1553 1553 1553 1553 1552 1551 1551 1551 1550 1549 1549 1548 1548 1547 1546 1546 1545 1544 1543 1542 1541 1540 1539 1538 1536 1535 1534 1532 1530 1529 1527 1525 1524 1523 1522 1521 1520 1518 1517 1515 1514
1554 1554 1553 1553 1553 1552 1552 1551 1551 1550 1550 1549 1549 1548 1548 1547 1546 1545 1545 1544 1543 1542 1541 1540 1538 1537 1536 1534 1533 1531 1529 1528 1526 1525 1523 1522 1521 1520 1519 1518 1516 1515
1554 1554 1554 1553 1553 1552 1552 1551 1551 1550 1550 1549 1549 1549 1548 1548 1547 1546 1545 1544 1543 1543 1542 1540 1539 1538 1536 1535 1533 1532 1530 1528 1527 1525 1524 1522 1521 1520 1519 1518 1517 1516
1554 1554 1553 1553 1553 1552 1552 1552 1551 1551 1550 1549 1549 1549 1548 1548 1547 1546 1546 1545 1544 1543 1542 1541 1540 1538 1537 1536 1534 1532 1530 1528 1527 1525 1524 1522 1521 1520 1519 1518 1517 1516
1554 1554 1553 1553 1552 1552 1552 1552 1551 1551 1550 1550 1550 1549 1548 1548 1547 1546 1546 1545 1545 1544 1542 1541 1540 1538 1537 1536 1534 1533 1531 1529 1527 1525 1524 1522 1520 1520 1519 1518 1517 1516